Terminal Aerodrome Forecast
Issued by NWS

Home | Current Version | Previous Version | Text Only | Print | Product List | Glossary On
Versions: 1 2 3 4 5 6 7 8 9 10 11 12 13 14 15 16 17
000
FTUS42 KKEY 172332
TAFMTH
TAF
KMTH 172332Z 1800/1824 08008KT P6SM SCT025 OVC100
     FM180200 06007KT P6SM VCSH SCT020 BKN050
     FM182200 08006KT P6SM SCT020 BKN060=

USA.gov is the U.S. government's official web portal to all federal, state and local government web resources and services.